GW4864 Weather Reports


Display with metric or nautical units.
time (UTC)temp
F
wind
direction
speed
MPH
gust
MPH
rain 1hr
in
rain 24hr
in
rain mn
in
humidity
%
barometer
mb
20260504081547 47 0 0.0 2.0 0.00 0.00 0.00 70 1015.7
20260504050105 48 0 0.0 0.0 0.00 0.00 0.00 70 1015.9
20260504044543 47 0 0.0 0.0 0.00 0.00 0.00 69 1016.0
20260504043044 47 0 0.0 0.0 0.00 0.00 0.00 69 1015.9
20260504041536 47 0 0.0 0.0 0.00 0.00 0.00 68 1015.9
20260504034552 47 0 0.0 0.0 0.00 0.00 0.00 69 1015.9
20260504033043 47 0 0.0 0.0 0.00 0.00 0.00 68 1015.7
20260504031540 47 0 0.0 0.0 0.00 0.00 0.00 67 1015.6
20260504030049 47 0 0.0 0.0 0.00 0.00 0.00 68 1015.6
20260504024546 47 0 0.0 0.0 0.00 0.00 0.00 68 1015.6
20260504023040 46 0 0.0 0.0 0.00 0.00 0.00 70 1015.6
20260504021547 46 0 0.0 1.0 0.00 0.00 0.00 65 1015.5
20260504020059 46 0 0.0 0.0 0.00 0.00 0.00 66 1015.1
20260504014553 46 0 0.0 0.0 0.00 0.00 0.00 65 1015.0
20260504013048 47 0 0.0 0.0 0.00 0.00 0.00 64 1015.0
20260504011546 47 0 0.0 0.0 0.00 0.00 0.00 63 1014.9
20260504010041 48 0 0.0 0.0 0.00 0.00 0.00 62 1014.9
20260504004535 49 0 0.0 0.0 0.00 0.00 0.00 59 1015.0
20260504003047 50 0 0.0 0.0 0.00 0.00 0.00 56 1014.9
20260504001542 51 0 0.0 0.0 0.00 0.00 0.00 54 1014.8
20260504000047 53 0 0.0 0.0 0.00 0.00 0.00 51 1014.8
20260503234539 55 0 0.0 1.0 0.00 0.00 0.00 46 1014.6
20260503233037 57 223 0.0 2.0 0.00 0.00 0.00 43 1014.6
20260503231545 59 308 0.0 2.0 0.00 0.00 0.00 40 1014.6
20260503230049 61 0 1.0 5.0 0.00 0.00 0.00 35 1014.5
20260503224542 61 15 0.0 5.0 0.00 0.00 0.00 34 1014.5
20260503223048 63 63 1.0 6.0 0.00 0.00 0.00 31 1014.6
20260503221543 64 323 0.0 3.0 0.00 0.00 0.00 31 1014.6
20260503220044 64 0 1.0 4.0 0.00 0.00 0.00 32 1014.7
20260503214551 63 0 0.0 4.0 0.00 0.00 0.00 30 1014.8
20260503213059 64 96 0.0 5.0 0.00 0.00 0.00 30 1014.8
20260503211603 64 224 2.0 8.0 0.00 0.00 0.00 30 1014.9
20260503210045 64 250 2.0 6.0 0.00 0.00 0.00 31 1014.9
20260503204540 64 327 2.0 8.0 0.00 0.00 0.00 32 1015.1
20260503203049 63 87 2.0 8.0 0.00 0.00 0.00 29 1015.2
20260503201546 63 18 1.0 5.0 0.00 0.00 0.00 28 1015.5
20260503200055 64 294 1.0 8.0 0.00 0.00 0.00 29 1015.7
20260503194554 64 204 1.0 6.0 0.00 0.00 0.00 32 1015.9
20260503193101 63 0 1.0 6.0 0.00 0.00 0.00 33 1016.1
20260503191543 63 260 2.0 8.0 0.00 0.00 0.00 34 1016.3
20260503190050 64 319 1.0 5.0 0.00 0.00 0.00 33 1016.6
20260503184558 61 62 2.0 7.0 0.00 0.00 0.00 33 1016.7
20260503183043 62 338 3.0 10.0 0.00 0.00 0.00 32 1017.0
20260503181608 60 0 2.0 6.0 0.00 0.00 0.00 33 1017.0
20260503180106 61 315 4.0 10.0 0.00 0.00 0.00 30 1017.3
20260503174554 61 310 3.0 8.0 0.00 0.00 0.00 31 1017.4
20260503173053 60 329 4.0 10.0 0.00 0.00 0.00 33 1017.7
20260503171551 59 313 2.0 10.0 0.00 0.00 0.00 32 1017.7